Flag for Germany Weather past 2 weeks in Cottbus, Brandenburg, Germany

Now
36 °F

Passing clouds.


Feels Like: 36 °F
Forecast: 31 / 56 °F
Wind: 1 mph from Southwest

Location: Cottbus

Current Time: Apr 18, 2015 at 10:31:35 PM

Latest Report: Apr 18, 2015 at 10:00 PM


Visibility: 4 mi

Pressure: 30.23 "Hg

Humidity: 80%

Dew point: 30 °F

Location of CottbusLocation

Historic Weather in Cottbus — Graph

°F

Cottbus temperature yesterday

Maximum temperature yesterday: 52 °F (at 1:00 PM)
Minimum temperature yesterday: 36 °F (at 2:00 AM)
Average temperature yesterday: 45 °F

Past Weeks' High & Low Weather Summary

 TemperatureHumidityPressure
High73 °F (Apr 15, 5:00 PM)100% (Apr 3, 10:00 PM)30.57 "Hg (Apr 3, 10:00 PM)
Low25 °F (Apr 5, 5:00 AM)24% (Apr 12, 6:00 PM)29.84 "Hg (Apr 15, 8:00 PM)
Average47 °F66%30.20 "Hg
* Reported Apr 3 9:00 PM — Apr 18 9:00 PM, Cottbus, Weather by CustomWeather, © 2015

Note: Actual official high and low records may vary slightly from our data, if they occured in-between our weather recording intervals... More about our weather records

Advertising

Cottbus weather history for previous 24 hours

 ConditionsComfort  
Time TempWeatherWind HumidityBarometerVisibility
9:00 PM
Sat, Apr 18
39 °FClear.1 mph72%30.22 "Hg13 mi
8:00 PM47 °FOvercast.1 mph49%30.22 "Hg37 mi
7:00 PM49 °FScattered clouds.2 mph44%30.22 "Hg37 mi
6:00 PM51 °FPartly sunny.3 mph39%30.22 "Hg31 mi
5:00 PM49 °FOvercast.5 mph44%30.23 "Hg43 mi
4:00 PM49 °FOvercast.5 mph45%30.24 "Hg37 mi
3:00 PM48 °FOvercast.5 mph50%30.25 "Hg43 mi
2:00 PM48 °FOvercast.3 mph49%30.26 "Hg37 mi
1:00 PM46 °FOvercast.3 mph57%30.27 "Hg40 mi
12:00 PM45 °FOvercast.3 mph59%30.27 "Hg31 mi
11:00 AM46 °FOvercast.5 mph58%30.27 "Hg34 mi
10:00 AM44 °FOvercast.2 mph63%30.26 "Hg34 mi
9:00 AM42 °FSunny.3 mph74%30.25 "Hg17 mi
8:00 AM38 °FSunny.2 mph83%30.24 "Hg18 mi
7:00 AM34 °FSunny.2 mph92%30.22 "Hg16 mi
6:00 AM33 °FSunny.1 mph95%30.20 "Hg17 mi
5:00 AM35 °FClear.2 mph91%30.18 "Hg19 mi
4:00 AM38 °FPassing clouds.2 mph89%30.16 "Hg25 mi
3:00 AM39 °FPassing clouds.2 mph85%30.14 "Hg28 mi
2:00 AM40 °FClear.2 mph82%30.12 "Hg34 mi
1:00 AM42 °FPassing clouds.2 mph76%30.10 "Hg43 mi
12:00 AM44 °FOvercast.1 mph74%30.07 "Hg40 mi
11:00 PM
Fri, Apr 17
45 °FOvercast.2 mph71%30.06 "Hg40 mi
10:00 PM46 °FOvercast.3 mph63%30.04 "Hg43 mi
Weather by CustomWeather, © 2015

See weather overviewHow to use our weather pages